EHI
0 0 0 0 0 0 0 0 0 0 0 1 1 1 0 1 2 4 4 4 2 1 0 0 0 0 0 0 0 0 0 0 0 0 0 0 0 0 0 0 0 0 0
0 0 0 0 0 0 0 0 0 0 0 0 0 0 0 0 1 1 2 1 1 1 0 0 0 0 0 0 0 0 0 0 0 0 0 0 0 0 0 0 0 0 0
0 0 0 0 0 0 0 0 0 0 0 0 0 0 0 0 0 0 0 0 0 0 0 0 0 0 0 0 0 0 0 0 0 0 0 0 0 0 0 0 0 0 0
0 0 0 0 0 0 0 0 0 0 0 0 0 0 0 0 0 0 0 0 0 0 0 0 0 0 0 0 0 0 0 0 0 0 0 0 0 0 0 0 0 0 0
0 0 0 0 0 0 0 0 0 0 0 0 0 0 0 0 0 0 0 0 0 0 0 0 0 0 0 0 0 0 0 0 0 0 0 0 0 0 0 0 0 0 0
0 0 0 0 0 0 0 0 0 0 0 0 0 0 0 0 0 0 0 0 0 0 0 0 0 0 0 0 0 0 0 0 0 0 0 0 0 0 0 0 0 0 0
0 0 0 0 0 0 0 0 0 0 0 0 0 0 0 0 0 0 0 0 0 0 0 0 0 0 0 0 0 0 0 0 0 0 0 0 0 0 0 0 0 0 0
0 0 0 0 0 0 0 0 0 0 0 0 0 0 0 0 0 0 0 0 0 0 0 0 0 0 0 0 0 0 0 0 0 0 0 0 0 0 0 0 0 0 0
0 0 0 0 0 0 0 0 0 0 0 0 0 0 0 0 0 0 0 0 0 0 0 0 0 0 0 0 0 0 0 0 0 0 0 0 1 0 0 0 0 0 0
0 0 0 0 0 0 0 0 0 0 0 0 0 0 0 0 0 0 0 0 0 0 0 0 0 0 0 0 0 0 0 0 0 0 0 0 0 0 0 0 0 0 0
0 0 0 0 0 0 0 0 0 0 0 0 0 0 0 0 0 0 0 0 0 0 0 0 0 0 0 0 0 0 0 0 0 0 0 0 0 0 0 0 0 0 0
0 0 0 0 0 0 0 0 0 0 0 0 0 0 0 0 0 0 0 0 0 0 0 0 0 0 0 0 0 0 0 0 0 0 0 0 0 0 0 0 0 0 0
0 0 0 0 0 0 0 0 0 0 0 0 0 0 0 0 0 0 0 0 0 0 0 0 0 0 0 0 0 0 0 0 0 0 0 0 0 0 0 0 0 0 0
0 0 0 0 0 0 0 0 0 0 0 0 0 0 0 0 0 0 0 0 0 0 0 0 0 0 0 0 0 0 0 0 0 0 0 0 0 0 0 0 0 0 0
0 0 0 0 0 0 0 0 0 0 0 0 0 0 0 0 0 0 0 0 0 0 0 0 0 0 0 0 0 0 0 0 0 0 0 0 0 0 0 0 0 0 0
0 0 0 0 0 0 0 0 0 0 0 0 0 0 0 0 0 0 0 0 0 0 0 0 0 0 0 0 0 0 0 0 0 0 0 0 0 0 0 0 0 0 0
0 0 0 0 0 0 0 0 0 0 0 0 0 0 0 0 0 0 0 0 0 0 0 0 0 0 0 0 0 0 0 0 0 0 0 0 0 0 0 0 0 0 0
0 0 0 0 0 0 0 0 0 0 0 0 0 0 0 0 0 0 0 0 0 0 0 0 0 0 0 0 0 0 0 0 0 0 0 0 0 0 0 0 0 0 0
0 0 0 0 0 0 0 0 0 0 0 0 0 0 0 0 0 0 0 0 0 0 0 0 0 0 0 0 0 0 0 0 0 0 0 0 0 0 0 0 0 0 0
0 0 0 0 0 0 0 0 0 0 0 0 0 0 0 0 0 0 0 0 0 0 0 0 0 0 0 0 0 0 0 0 0 0 0 0 0 0 0 0 0 0 0
0 0 0 0 0 0 0 0 0 0 0 0 0 0 0 0 0 0 0 0 0 0 0 0 0 0 0 0 0 0 0 0 0 0 0 0 0 0 0 0 0 0 0
0 0 0 0 0 0 0 0 0 0 0 0 0 0 0 0 0 0 0 0 0 0 0 0 0 0 0 0 0 0 0 0 0 0 0 0 0 0 0 0 0 0 0
0 0 0 0 0 0 0 0 0 0 0 0 0 0 0 0 0 0 0 0 0 0 0 0 0 0 0 0 0 0 0 0 0 0 0 0 0 0 0 0 0 0 0
0 0 0 0 0 0 0 0 0 0 0 0 0 0 0 0 0 0 0 0 0 0 0 0 0 0 0 0 0 0 0 0 0 0 0 0 0 0 0 0 0 0 0
0 0 0 0 0 0 0 0 0 0 0 0 0 0 0 0 0 0 0 0 0 0 0 0 0 0 0 0 0 0 0 0 0 0 0 0 0 0 0 0 0 0 0
0 0 0 0 0 0 0 0 0 0 0 0 0 0 0 0 0 0 0 0 0 0 0 0 0 0 0 0 0 0 0 0 0 0 0 0 0 0 0 0 0 0 0
Wind_Speed
6 6 6 6 6 6 6 7 7 7 7 7 7 7 6 5 4 3 2 2 2 2 2 3 3 3 3 3 3 3 3 3 3 2 1 2 2 2 2 1 2 4 5
5 6 6 6 7 7 7 7 7 8 8 7 7 7 8 8 6 5 4 3 2 2 2 3 3 3 3 3 3 4 3 3 3 3 2 2 2 3 3 2 2 3 4
5 5 6 6 7 7 8 8 7 8 9 9 9 9 9 9 9 8 5 3 2 2 2 3 3 4 4 3 3 3 3 3 3 3 2 2 1 2 3 2 2 3 5
5 5 6 6 6 6 7 8 8 8 9 10 9 9 9 9 10 10 7 4 3 2 3 3 3 4 4 4 4 4 4 4 3 3 2 2 2 2 3 3 3 3 5
4 4 5 5 6 6 6 7 7 8 10 8 9 9 9 8 10 10 8 6 4 3 3 3 4 5 6 4 4 4 4 3 3 3 2 2 2 3 3 3 5 5 6
4 4 5 5 6 6 5 6 6 6 7 7 8 7 8 9 15 16 12 6 5 4 4 3 4 5 7 8 8 7 5 4 3 2 2 3 3 3 3 4 6 6 4
4 4 4 5 5 6 6 6 6 6 6 7 7 6 6 9 16 17 17 6 4 3 3 2 2 4 5 5 7 7 6 4 2 2 2 2 3 4 5 5 5 5 5
5 5 4 5 5 6 6 6 6 5 5 4 5 5 5 9 17 17 17 5 3 4 4 4 4 4 4 4 5 6 5 4 2 2 2 2 2 3 5 5 7 8 8
5 5 5 5 5 5 6 6 5 4 4 4 4 5 5 8 15 17 15 4 3 4 5 6 5 5 7 7 6 6 6 4 6 8 7 6 7 7 7 7 8 9 7
5 4 4 4 5 5 5 5 4 4 4 3 3 4 5 6 12 16 15 5 5 4 4 5 8 6 6 6 5 6 5 3 4 5 5 5 6 7 8 6 7 8 6
4 4 4 4 3 4 4 4 3 4 3 3 3 3 4 6 9 13 13 5 5 4 3 4 4 6 7 7 6 5 4 4 4 5 5 5 5 5 5 5 5 5 5
3 3 3 4 4 4 2 3 3 4 4 4 4 4 3 4 7 9 12 9 8 4 4 3 3 6 7 7 6 5 6 5 4 5 5 5 5 5 5 6 7 6 5
3 3 1 3 3 1 3 4 4 4 4 4 4 4 4 4 7 13 12 10 9 4 3 4 4 4 5 5 6 5 4 4 4 5 6 5 4 5 6 6 7 8 9
2 1 1 2 2 2 2 3 3 4 4 5 5 5 4 4 5 7 7 6 6 3 2 3 4 6 5 5 4 3 3 4 5 5 5 4 4 4 4 4 5 5 6
2 2 2 3 1 1 3 2 3 3 2 2 3 4 4 4 5 8 6 5 5 4 3 1 2 2 3 3 2 3 3 4 4 4 4 4 4 4 3 3 4 5 5
3 2 2 2 2 1 2 3 2 2 4 3 2 2 2 3 6 8 8 9 9 8 4 3 3 3 3 3 3 3 3 3 3 4 4 4 3 3 3 3 4 5 5
3 2 2 2 2 1 1 2 3 2 2 2 2 1 1 3 5 6 8 9 8 6 4 4 3 3 3 3 2 3 3 3 3 4 4 3 3 4 3 3 3 4 4
3 2 2 2 2 2 1 1 1 2 3 3 4 5 3 2 4 6 7 5 3 3 3 3 2 2 2 2 2 2 3 3 3 3 3 3 3 3 3 3 3 4 4
3 3 3 3 2 2 2 2 2 2 2 3 4 3 6 4 4 6 5 1 2 2 2 2 2 2 2 2 2 2 3 3 3 3 3 3 3 3 3 3 4 4 3
2 2 2 2 3 3 3 3 3 3 2 2 3 4 3 3 2 1 0 1 2 2 2 2 2 2 2 2 2 2 2 3 3 3 3 2 2 3 4 4 3 2 1
4 5 7 4 3 4 3 3 3 3 3 2 3 4 4 1 1 2 2 1 1 2 2 2 2 2 2 1 1 1 2 2 2 3 3 2 2 2 2 2 3 3 3
4 3 5 5 5 4 3 3 3 3 3 3 4 4 6 2 2 3 3 3 3 2 2 2 1 1 1 1 1 1 1 2 2 2 2 2 2 2 2 2 2 2 2
3 4 3 4 4 5 4 3 3 3 4 4 5 6 5 4 4 4 4 4 4 3 3 2 2 2 1 0 1 1 1 0 2 2 2 2 3 2 2 2 3 2 2
5 5 5 4 3 3 4 5 5 5 5 4 4 5 6 6 5 5 5 5 5 4 4 4 3 5 5 3 1 0 1 2 3 2 1 1 2 2 2 2 3 3 2
5 5 5 4 4 4 4 4 5 5 5 5 4 4 5 5 5 5 5 5 6 5 6 6 4 4 6 7 5 3 5 5 4 3 1 0 1 2 2 3 3 2 3
6 5 5 4 4 4 4 4 4 4 4 4 5 5 5 5 5 5 5 5 6 5 6 5 7 8 7 6 7 9 10 7 5 2 1 1 1 2 2 2 3 3 3
Wind_Direction
360 359 7 8 3 10 8 3 6 6 12 22 23 30 34 34 36 44 49 65 96 114 125 147 158 161 160 160 159 162 167 161 174 165 168 166 151 150 137 165 144 157 172
1 2 11 13 11 16 11 5 11 14 14 23 30 32 32 28 23 30 42 54 72 90 105 122 132 133 137 141 154 162 161 162 163 164 163 154 167 167 154 174 169 159 142
6 9 14 17 16 17 13 7 16 20 19 20 30 32 31 28 20 14 18 38 66 89 109 122 128 129 131 133 138 140 141 143 134 141 152 150 145 148 145 157 126 106 117
18 16 13 18 20 18 19 14 18 22 26 21 28 30 27 28 19 8 1 13 36 62 94 102 110 119 126 128 127 128 129 129 131 133 133 137 142 150 140 137 114 102 105
29 25 14 15 22 17 23 21 23 26 30 24 26 28 24 25 16 8 355 5 20 40 74 92 98 112 118 122 127 131 130 130 137 140 147 148 159 155 162 150 131 111 96
41 41 25 20 19 15 25 24 26 34 31 28 25 24 27 21 7 10 5 355 10 29 47 72 103 108 114 110 110 115 126 139 150 151 160 165 175 167 148 141 137 127 110
51 47 37 29 21 17 20 23 26 34 35 30 18 18 27 18 10 6 358 349 13 33 44 56 90 98 98 112 119 110 91 82 120 154 154 167 165 162 150 148 143 125 115
53 40 39 43 27 20 16 26 27 23 29 30 15 14 23 22 13 6 353 3 23 39 38 44 76 85 81 98 107 95 77 53 53 103 113 107 118 140 144 140 124 108 102
58 44 35 41 36 24 19 19 24 16 14 23 21 20 27 23 16 11 2 355 24 49 52 50 65 74 81 95 105 105 96 84 72 85 93 99 97 103 118 119 124 128 126
53 49 39 41 47 33 21 14 12 10 2 13 29 34 38 33 24 19 11 11 17 32 54 66 63 64 71 80 101 110 111 116 114 103 91 90 90 95 112 125 136 138 132
59 53 42 26 59 64 21 2 9 0 351 5 20 45 57 48 28 23 20 19 1 17 43 55 48 52 66 74 85 95 108 104 98 99 90 78 69 69 79 88 103 127 128
94 68 61 54 30 38 19 358 7 358 355 5 13 28 45 54 35 15 17 21 13 30 41 45 44 52 71 79 81 85 88 84 86 90 82 75 73 71 73 77 78 78 84
144 138 145 133 125 57 10 17 19 14 8 7 12 15 21 37 21 12 8 14 21 35 52 51 55 66 77 79 80 79 78 84 89 89 86 83 84 86 81 76 70 67 63
136 139 164 88 93 99 69 42 40 26 13 5 9 8 8 30 20 2 352 360 9 28 46 59 64 69 77 86 79 67 73 88 99 100 100 98 93 91 95 99 95 86 73
171 197 165 130 115 93 104 75 66 88 76 30 4 357 9 9 357 351 356 356 351 353 349 33 52 68 74 74 70 72 75 85 93 102 102 98 93 87 89 100 106 97 95
219 181 151 153 148 150 148 139 67 105 142 108 51 14 49 27 344 351 356 356 358 4 38 56 55 58 69 75 79 78 77 87 97 103 104 108 109 105 95 83 96 109 114
256 190 162 155 150 208 210 172 169 181 207 247 260 317 10 345 346 347 348 348 356 25 58 59 55 52 56 70 85 93 93 94 96 102 108 112 110 108 105 102 104 108 117
252 159 152 172 199 219 219 203 184 170 182 203 226 239 248 290 324 333 336 341 23 51 64 69 63 55 62 73 85 94 98 96 94 100 102 103 106 110 112 111 107 114 123
243 190 180 207 209 207 201 219 216 195 188 164 157 201 231 242 280 303 329 40 77 80 78 68 60 62 64 68 77 89 97 98 101 101 99 102 108 112 111 107 104 107 122
246 181 173 211 238 220 207 215 218 199 199 175 156 157 180 202 209 208 153 65 93 99 99 95 65 51 57 61 62 77 95 98 100 102 107 102 99 108 118 125 139 156 158
223 199 191 210 241 246 224 214 209 191 197 180 146 142 150 211 179 152 153 149 130 132 122 107 98 75 53 44 41 79 118 127 122 120 121 119 113 111 120 129 136 134 124
238 213 183 201 218 233 232 223 213 196 195 179 155 160 171 202 237 190 172 173 168 147 134 139 145 127 98 31 354 342 116 133 138 139 139 135 126 128 126 127 133 132 138
237 260 229 208 209 209 208 231 238 214 203 201 178 164 177 202 215 196 181 172 163 165 162 167 170 161 173 231 326 359 355 172 141 127 133 145 149 158 164 167 162 159 177
211 232 241 231 221 213 205 212 223 219 206 203 197 181 179 189 195 191 182 171 168 175 174 179 195 195 187 180 199 274 24 51 52 61 90 147 164 171 171 163 169 192 180
207 220 222 221 225 223 222 224 225 222 207 198 200 195 186 182 185 185 179 173 172 180 186 184 189 199 196 186 187 170 139 120 95 36 21 110 181 179 171 174 181 198 188
202 216 218 211 215 222 226 232 235 231 221 207 198 194 188 186 185 183 178 176 177 183 186 187 192 193 195 198 197 177 167 166 159 143 38 333 226 202 186 197 207 204 203